Content
SEND FEEDBACK

Daily
Averages
Monthly
Summary
Spain

PUERTO DEL ROSARIO, SPAIN


Home > Europe > Spain
Elevation: 98 feet     Latitude: 28 27N     Longitude: 013 52W

WEATHER
 
SELECT A DAY
Number of Records: 220,930;   Date Range: 7/1/96 - 11/27/14
 
SHARE

PRINT THIS DATA

[ ← Previous Day ]
WEATHER ALMANAC - APRIL 17, 2013
[ Next Day → ]
[ °C ]   °F
Weather ElementAverageHighLow
Temperature68.7 °F73.4 °F (12:00 pm)64.4 °F (7:30 am)
Dewpoint60.5 °F62.6 °F (2:30 pm)57.2 °F (6:30 am)
Humidity75.8 %88 % (7:30 pm)61 % (12:00 pm)
Barometer30.00 in30.04 in (11:00 pm)29.98 in (6:30 am)
Wind Speed13.4 mph17.3 mph (12:00 pm)
Weather ElementAverage
Visibility6.2 mi
Wind DirectionE (89.4 °)

Weather ElementTotal
Precipitation---
Cooling Degree Days3.9 (Base 65)
Growing Degree Days18.9 (Base 50)
Averaged from 33 records on April 17, 2013
WEATHER CONDITIONS BREAKOUT
WIND DIRECTION BREAKOUT
WEATHER BY HOUR - APRIL 17, 2013
[ °C ]   °F
Local TimeTemperatureDewpointHumidityBarometerVisibilityWind DirectionWind SpeedGust SpeedPrecipitationEventsConditions
6:30 AM66.2 °F57.2 °F73 %29.98 in6.2 miNorth (10°)8.1 mphScattered Clouds
7:00 AM66.2 °F57.2 °F73 %29.98 in6.2 miNorth (360°)9.2 mphScattered Clouds
7:30 AM64.4 °F59.0 °F83 %29.98 in6.2 miNorth (360°)8.1 mphMostly Cloudy
8:00 AM66.2 °F59.0 °F78 %30.01 in6.2 miNorth (350°)9.2 mphMostly Cloudy
8:30 AM66.2 °F59.0 °F78 %30.01 in6.2 miNorth (360°)10.4 mphMostly Cloudy
9:00 AM66.2 °F59.0 °F78 %30.01 in6.2 miNorth (10°)11.5 mphMostly Cloudy
9:30 AM68.0 °F60.8 °F78 %30.01 in6.2 miNNE (20°)13.8 mphMostly Cloudy
10:00 AM68.0 °F59.0 °F73 %30.01 in6.2 miNNE (20°)15.0 mphMostly Cloudy
10:30 AM69.8 °F59.0 °F68 %30.01 in6.2 miNNE (20°)13.8 mphMostly Cloudy
11:00 AM69.8 °F59.0 °F68 %30.01 in6.2 miNorth (10°)16.1 mphMostly Cloudy
11:30 AM71.6 °F59.0 °F64 %30.01 in6.2 miNorth (10°)16.1 mphScattered Clouds
12:00 PM73.4 °F59.0 °F61 %30.01 in6.2 miNNE (30°)17.3 mphScattered Clouds
12:30 PM73.4 °F59.0 °F61 %30.01 in6.2 miNorth (10°)17.3 mphScattered Clouds
1:00 PM71.6 °F59.0 °F64 %30.01 in6.2 miNorth (360°)17.3 mphScattered Clouds
1:30 PM73.4 °F59.0 °F61 %30.01 in6.2 miVariable17.3 mphScattered Clouds
2:00 PM71.6 °F60.8 °F69 %30.01 in6.2 miNE (50°)15.0 mphScattered Clouds
2:30 PM68.0 °F62.6 °F83 %30.01 in6.2 miENE (60°)12.7 mphMostly Cloudy
3:00 PM69.8 °F62.6 °F78 %30.01 in6.2 miENE (60°)12.7 mphMostly Cloudy
3:30 PM69.8 °F62.6 °F78 %30.01 in6.2 miENE (60°)12.7 mphScattered Clouds
4:00 PM69.8 °F62.6 °F78 %29.98 in6.2 miNE (50°)15.0 mphPartly Cloudy
4:30 PM69.8 °F62.6 °F78 %29.98 in6.2 miNE (50°)15.0 mphPartly Cloudy
5:30 PM69.8 °F62.6 °F78 %29.98 in6.2 miNE (50°)16.1 mphScattered Clouds
6:00 PM68.0 °F62.6 °F83 %29.98 in6.2 miNE (40°)15.0 mphScattered Clouds
6:30 PM68.0 °F62.6 °F83 %29.98 in6.2 miNE (40°)13.8 mphScattered Clouds
7:00 PM68.0 °F62.6 °F83 %29.98 in6.2 miNE (40°)15.0 mphMostly Cloudy
7:30 PM66.2 °F62.6 °F88 %29.98 in6.2 miNE (40°)13.8 mphMostly Cloudy
8:00 PM66.2 °F62.6 °F88 %29.98 in6.2 miNE (40°)12.7 mphMostly Cloudy
8:30 PM68.0 °F60.8 °F78 %29.98 in6.2 miNorth (360°)12.7 mphMostly Cloudy
9:00 PM68.0 °F60.8 °F78 %29.98 in6.2 miNNE (20°)13.8 mphMostly Cloudy
9:30 PM68.0 °F60.8 °F78 %30.01 in6.2 miNNE (20°)11.5 mphMostly Cloudy
10:00 PM68.0 °F60.8 °F78 %30.01 in6.2 miNNE (20°)11.5 mphMostly Cloudy
10:30 PM68.0 °F60.8 °F78 %30.01 in6.2 miNorth (10°)12.7 mphMostly Cloudy
11:00 PM66.2 °F60.8 °F83 %30.04 in6.2 miNorth (10°)11.5 mphMostly Cloudy
Hourly data recorded from GCFV, located miles away from Puerto del Rosario, Spain







STORIES FROM OUR PARTNERS